Location: Sumpter
(44.7457°N, 118.2022°W)
Time: 20:30:47
(UTC-07:00)

ISS - Visible Passes

Search period start: 24 September 2018 00:00
Search period end: 04 October 2018 00:00
Orbit: 403 x 408 km, 51.6° (Epoch: 25 September)

Date Brightness Start Highest point End Pass type
(mag) Time Alt. Az. Time Alt. Az. Time Alt. Az.
24 Sep -3.2 20:35:28 10° WSW 20:38:41 52° NNW 20:39:08 47° N visible
25 Sep -3.8 19:43:29 10° WSW 19:46:47 82° NNW 19:49:31 14° ENE visible
25 Sep -1.1 21:20:46 10° WNW 21:22:12 19° NW 21:22:12 19° NW visible
26 Sep -2.3 20:28:35 10° W 20:31:37 33° NNW 20:32:29 28° NNE visible
27 Sep -2.8 19:36:25 10° W 19:39:36 44° NNW 19:42:40 11° NE visible
27 Sep -1.1 21:13:54 10° WNW 21:15:21 19° NW 21:15:21 19° NW visible
28 Sep -2.0 20:21:44 10° WNW 20:24:33 25° N 20:25:28 22° NNE visible
29 Sep -2.2 19:29:31 10° WNW 19:32:28 30° NNW 19:35:26 10° NE visible
29 Sep -1.1 21:06:50 10° NW 21:08:13 18° NNW 21:08:13 18° NNW visible
30 Sep -2.0 20:14:45 10° NW 20:17:30 23° N 20:18:14 22° NNE visible
01 Oct -2.0 19:22:34 10° WNW 19:25:22 24° N 19:28:09 10° NE visible
01 Oct -1.3 20:59:32 10° NW 21:00:55 20° NNW 21:00:55 20° NNW visible
02 Oct -2.3 20:07:33 10° NW 20:10:23 26° N 20:10:55 24° NNE visible
03 Oct -2.1 19:15:29 10° NW 19:18:14 24° N 19:20:55 10° ENE visible
03 Oct -1.5 20:52:05 10° NW 20:53:35 23° NW 20:53:35 23° NW visible
